Vorticity
17 17 16 17 18 18 19 18 16 13 10 10 13 16 18 18 16 12 9 8 11 12 12 10 8 6 5 5 6 7 8 8 8 7 7 7 7 7 8 8 8 8 8 8 9 9 9 10 10 11 11 12 12 12 13 13 13 13 13 13 13 13 14 14 14 13 13 13 14
18 17 17 16 17 18 19 19 18 15 12 10 11 13 16 18 18 16 13 10 11 13 14 13 10 8 6 5 5 6 7 7 8 7 7 7 7 7 7 7 7 7 7 7 8 8 9 9 9 10 10 11 11 11 12 13 13 13 13 13 13 13 13 14 14 14 13 13 14
18 18 18 17 17 17 19 19 19 17 14 11 10 11 13 16 18 18 16 13 13 13 14 14 12 9 7 5 5 5 6 7 7 7 7 7 7 7 7 7 7 7 7 7 7 7 8 8 9 9 10 10 10 11 11 12 12 13 13 13 13 13 13 13 13 13 13 14 13
17 18 18 17 17 17 18 19 19 18 17 14 11 10 11 13 16 18 18 16 14 14 14 15 13 11 8 6 6 5 5 6 6 7 7 7 7 7 7 7 7 7 7 6 7 7 7 8 8 9 9 9 10 11 11 11 12 12 13 12 12 13 13 13 13 13 13 13 13
16 17 18 18 17 17 17 18 19 19 18 16 13 11 10 10 13 16 18 18 16 14 13 14 14 13 10 7 6 6 6 5 6 6 7 7 7 7 7 7 7 7 7 6 6 6 7 7 8 8 9 9 10 10 11 11 11 12 12 12 12 12 12 12 13 13 13 13 13
16 17 17 18 18 17 18 18 19 19 19 18 15 13 11 9 11 14 16 18 17 15 13 13 14 14 12 9 7 7 6 6 6 6 6 7 7 7 7 7 7 7 7 6 6 6 6 7 7 8 9 9 9 10 10 11 11 12 12 12 12 12 12 12 12 13 13 13 13
15 16 17 18 18 18 18 18 19 19 19 18 17 15 12 10 10 11 14 16 17 16 15 13 13 14 13 11 9 8 7 7 6 6 6 6 7 7 7 8 7 7 7 6 6 6 6 7 7 8 8 9 9 9 10 10 11 11 12 12 12 12 12 12 12 12 12 12 12
14 15 16 17 18 18 18 18 19 19 19 19 18 16 14 12 10 10 12 14 16 16 16 14 13 14 14 12 10 9 8 7 7 7 6 6 7 7 8 8 7 7 7 6 6 6 6 6 7 8 8 9 9 9 10 10 11 11 11 11 11 11 11 11 12 12 12 12 12
14 15 16 16 17 18 18 18 18 19 19 19 18 17 15 13 11 10 11 12 14 16 16 15 14 14 14 14 12 10 9 8 8 7 7 6 7 7 8 8 8 7 7 6 6 6 6 6 7 8 8 9 9 9 9 10 10 11 11 11 11 11 11 11 11 11 12 12 11
14 14 15 16 17 17 18 18 18 19 19 20 19 18 16 15 13 11 10 11 12 14 16 16 15 14 14 15 14 12 11 9 8 7 7 6 7 7 7 8 8 8 7 6 6 6 6 6 7 8 8 9 9 9 9 10 10 11 11 11 11 11 11 11 11 11 11 11 11
14 14 14 15 16 17 17 18 18 19 19 20 19 18 17 16 14 12 11 10 11 13 15 16 15 14 14 15 15 14 13 11 9 8 7 7 7 7 7 8 8 8 7 7 6 6 6 6 7 8 9 9 9 9 9 10 10 10 10 11 10 10 10 11 11 11 11 11 11
14 14 14 15 16 16 17 17 18 18 19 20 20 19 18 16 15 13 12 11 11 12 13 15 15 14 14 15 16 16 14 12 10 9 8 7 7 7 7 8 8 8 7 7 6 6 6 6 7 8 8 9 10 10 9 9 10 10 10 10 10 10 10 10 10 10 10 10 10
15 15 15 15 15 16 16 17 17 18 19 20 20 19 18 17 16 14 13 12 11 11 12 14 14 14 14 14 15 16 16 14 12 10 9 8 7 7 7 7 8 8 7 7 6 6 6 6 7 7 8 9 10 10 9 9 9 10 10 10 10 10 10 10 10 10 10 10 10
15 15 15 15 15 16 16 16 17 17 18 19 20 19 19 18 17 15 14 12 11 11 11 13 14 14 14 13 14 16 16 16 13 12 10 9 8 8 7 7 7 7 7 7 6 6 6 6 6 7 8 9 10 10 9 9 9 9 9 9 9 10 10 10 10 10 10 10 10
16 16 16 16 16 16 16 16 16 17 17 18 19 19 19 18 17 16 15 13 12 11 11 11 13 14 14 13 13 15 16 16 15 13 11 10 9 8 8 7 7 7 7 7 7 6 6 6 6 7 8 9 10 10 9 9 8 9 9 9 9 9 10 10 10 10 10 10 10
16 16 16 16 16 16 16 16 16 16 17 18 19 19 19 19 18 17 15 14 13 11 10 10 12 13 13 13 13 14 15 16 15 14 13 12 10 9 8 7 7 7 7 7 7 6 6 6 6 7 8 9 10 10 9 8 8 8 8 8 9 9 10 10 10 10 10 10 11
17 17 17 17 17 17 16 16 16 16 16 17 18 19 19 19 18 17 16 15 13 12 10 10 10 11 12 13 12 13 14 15 15 15 14 13 11 10 8 8 7 7 7 7 7 6 6 6 6 7 8 9 10 10 9 8 8 8 8 8 9 9 10 10 10 10 10 10 11
17 17 17 17 17 17 17 16 16 16 16 16 17 18 19 19 19 18 16 15 14 12 11 9 10 10 11 12 12 12 13 14 15 15 14 14 12 10 9 8 8 8 7 7 7 6 6 6 6 7 7 9 10 10 9 8 8 7 8 8 9 9 10 10 10 10 10 11 11
18 18 18 18 18 18 17 17 17 16 16 16 17 18 18 19 19 18 17 16 14 13 11 10 10 10 11 12 12 11 12 13 14 15 15 15 13 11 9 8 8 8 8 7 7 7 6 6 6 7 7 8 9 10 9 8 8 7 7 8 8 9 9 10 10 10 10 11 11
19 19 19 19 18 18 18 18 17 17 16 16 17 17 18 18 19 18 17 16 14 13 12 10 10 10 11 12 12 11 11 11 13 14 15 15 14 13 10 9 8 8 8 8 7 7 7 6 6 7 7 8 9 10 9 9 8 7 7 8 8 9 9 10 10 10 10 10 10
20 20 20 19 19 19 19 18 18 17 17 16 16 17 17 18 19 18 18 16 15 13 12 11 11 11 12 12 12 11 11 10 12 14 15 16 15 14 12 10 9 8 8 8 8 7 7 6 6 7 7 8 9 10 9 9 8 7 7 8 8 9 9 10 10 10 10 10 10
20 20 20 20 20 20 20 19 19 18 17 17 17 17 17 18 18 18 18 17 15 14 13 12 12 12 12 12 12 12 11 10 11 13 15 16 16 14 13 11 10 9 8 8 8 8 7 7 6 7 7 8 9 9 9 9 8 8 7 8 8 9 9 10 10 10 10 10 10
21 21 21 21 21 21 21 21 20 19 18 18 17 17 17 18 18 18 18 18 16 15 13 12 12 12 11 11 12 12 11 10 11 13 15 16 16 15 14 13 12 10 9 8 8 8 8 7 7 7 7 8 9 9 9 9 8 8 7 8 8 9 9 9 9 10 10 10 10
21 21 21 22 22 22 22 22 21 20 20 19 18 17 17 17 18 18 18 18 17 15 14 13 13 12 11 11 11 11 11 10 10 12 14 16 15 14 13 13 13 12 10 8 8 8 8 7 7 7 7 8 9 9 10 9 9 8 8 8 9 9 9 9 9 10 10 10 9
20 21 22 22 22 23 23 23 22 22 21 20 19 18 18 18 18 18 18 18 17 16 15 14 13 13 11 10 10 10 10 9 10 12 14 16 15 13 13 13 14 13 12 10 8 8 8 8 7 7 8 8 9 9 10 9 9 8 8 8 9 9 9 9 9 10 10 10 9
20 21 21 22 23 23 24 24 23 23 22 21 20 19 19 18 18 18 18 18 18 17 16 15 14 13 11 9 9 10 9 9 9 10 13 15 15 13 12 12 13 14 14 12 9 8 7 8 8 8 8 8 9 9 10 10 9 9 9 9 9 9 9 9 9 9 10 10 9
19 20 21 22 23 24 24 25 24 24 24 23 21 20 20 19 18 18 18 18 18 18 17 16 14 12 10 8 8 9 9 9 8 9 12 15 15 13 11 10 12 14 15 13 11 9 8 7 8 8 8 9 9 9 10 9 9 9 9 9 9 9 9 9 9 9 9 9 9
18 19 20 21 23 24 25 25 25 25 25 24 23 22 21 20 19 19 18 18 18 18 18 17 15 12 10 7 7 8 9 9 8 8 10 14 14 13 11 10 11 13 14 14 12 10 8 7 8 8 9 9 9 10 10 9 9 9 9 10 10 10 9 9 9 9 9 9 9
16 17 19 20 22 24 25 26 26 26 26 25 24 23 22 21 20 19 19 19 19 19 19 18 16 13 11 8 7 8 9 10 9 8 10 13 14 14 12 10 10 12 13 15 14 12 10 8 8 8 9 9 10 10 10 9 9 9 9 10 10 10 9 9 9 9 9 9 9
15 16 18 19 21 23 24 26 27 27 27 26 25 24 24 22 22 21 20 19 19 19 19 19 17 15 11 7 6 6 8 10 10 9 9 12 14 14 12 10 10 11 12 14 14 13 11 9 8 8 9 10 10 10 10 10 9 9 10 10 10 10 9 9 9 9 9 9 9
14 15 16 18 19 21 23 25 27 27 28 27 26 25 25 24 23 22 21 20 19 19 20 20 19 16 12 7 5 5 7 10 11 10 10 11 13 14 13 11 10 10 11 13 14 13 12 10 9 9 9 10 10 10 10 10 9 9 10 10 10 10 9 9 8 9 9 9 8
13 14 15 17 18 20 22 25 26 28 28 28 27 26 25 25 24 23 22 21 20 20 20 20 20 17 13 9 6 4 4 7 10 11 11 11 13 14 13 11 10 10 10 12 13 13 13 11 10 9 10 10 11 11 10 10 10 9 10 10 10 10 9 9 8 8 9 9 8
11 13 14 16 17 19 21 23 26 27 28 28 28 27 26 26 26 25 23 22 20 20 20 21 21 19 15 10 6 3 2 4 8 11 11 11 13 14 13 12 10 9 10 11 13 13 13 12 11 10 10 10 11 11 11 10 10 10 10 11 11 10 10 9 8 8 8 8 8
10 12 13 15 16 18 20 22 24 26 28 29 28 28 27 27 27 26 25 23 21 20 20 21 22 21 17 12 7 2 0 1 6 9 11 12 13 13 13 12 10 10 10 11 12 13 13 12 11 10 10 11 11 11 11 11 10 10 10 11 11 11 10 9 8 8 8 8 8
9 10 12 14 16 18 19 21 23 25 27 28 29 28 28 27 27 27 27 25 23 21 21 21 22 22 20 15 9 3 -1 -2 2 7 11 12 13 13 13 12 11 10 9 10 11 12 13 12 11 11 10 11 12 12 12 11 10 10 10 10 11 11 10 9 8 8 8 8 8
8 9 11 14 16 17 19 20 22 24 26 28 28 29 28 28 28 28 28 27 24 23 22 21 22 22 22 18 11 4 -2 -4 -0 5 10 12 13 13 13 13 11 10 9 10 11 12 12 12 11 11 10 11 12 12 12 12 11 10 10 10 11 11 10 9 8 8 8 8 7
7 8 10 13 15 17 18 20 21 23 25 27 28 28 28 28 29 29 28 27 26 24 23 22 22 23 23 21 14 6 -1 -5 -3 2 7 12 13 13 13 13 11 10 10 9 10 11 12 12 11 11 10 11 12 12 12 12 11 11 10 11 11 11 10 9 8 8 7 7 7
6 7 10 13 15 17 18 19 20 22 24 25 27 28 28 28 29 30 29 27 27 26 25 23 22 23 24 23 17 9 1 -6 -5 -1 4 10 12 13 13 13 12 11 10 9 10 11 11 12 11 11 10 10 11 12 12 12 11 11 11 11 11 11 10 10 8 8 7 7 7
6 7 10 13 16 17 18 19 20 21 22 24 26 27 28 28 29 29 29 28 27 27 26 24 23 24 24 24 20 12 3 -5 -6 -4 1 7 11 13 13 13 13 11 10 9 10 11 11 11 11 11 10 10 11 12 12 12 12 11 11 11 11 11 11 10 9 8 7 7 7
6 7 10 13 16 17 18 18 19 20 21 23 25 26 27 28 28 29 30 30 29 28 27 25 25 25 25 25 22 15 6 -3 -6 -6 -2 4 9 12 13 13 13 12 11 9 10 10 11 11 11 11 10 10 10 11 12 12 12 11 11 11 12 12 11 10 9 8 7 7 7
6 8 11 14 16 17 18 18 19 19 21 22 23 24 26 27 28 29 30 30 30 29 28 27 26 25 25 26 24 18 10 0 -5 -6 -4 1 7 11 13 14 14 13 11 10 9 10 11 11 11 11 10 10 10 11 11 12 12 12 12 12 13 12 11 10 9 8 7 7 7
Height
5552 5553 5554 5554 5555 5555 5557 5558 5560 5562 5564 5565 5567 5569 5571 5573 5575 5577 5579 5582 5584 5585 5588 5590 5592 5594 5596 5598 5600 5602 5604 5606 5608 5610 5612 5614 5615 5617 5619 5621 5623 5625 5627 5629 5630 5632 5633 5635 5636 5638 5639 5641 5642 5644 5645 5647 5648 5649 5651 5652 5654 5655 5657 5659 5660 5661 5663 5664 5666
5548 5548 5549 5550 5550 5551 5552 5553 5555 5557 5559 5560 5562 5564 5566 5569 5570 5572 5574 5577 5579 5581 5583 5585 5587 5589 5592 5594 5596 5598 5600 5602 5604 5606 5608 5610 5612 5614 5616 5618 5619 5621 5623 5625 5627 5629 5630 5632 5634 5635 5637 5638 5640 5641 5643 5644 5646 5647 5648 5650 5651 5653 5654 5656 5657 5659 5660 5662 5664
5543 5544 5544 5545 5546 5547 5548 5549 5550 5552 5554 5555 5557 5559 5561 5564 5565 5568 5570 5572 5574 5576 5578 5580 5583 5585 5587 5589 5592 5594 5596 5598 5600 5603 5605 5607 5609 5611 5613 5614 5616 5618 5620 5622 5624 5626 5628 5629 5631 5633 5634 5635 5637 5639 5640 5641 5643 5644 5646 5647 5649 5650 5652 5654 5655 5657 5658 5660 5661
5538 5539 5540 5541 5542 5543 5543 5544 5545 5547 5549 5550 5552 5554 5557 5559 5561 5563 5565 5567 5569 5572 5574 5576 5578 5580 5583 5585 5588 5590 5592 5594 5597 5599 5601 5603 5605 5607 5609 5611 5613 5615 5617 5619 5621 5623 5624 5626 5628 5630 5631 5633 5634 5636 5637 5639 5640 5642 5643 5644 5646 5648 5649 5651 5653 5654 5656 5658 5659
5534 5534 5535 5536 5537 5538 5539 5540 5541 5542 5544 5545 5548 5550 5552 5554 5556 5558 5560 5563 5565 5567 5569 5571 5574 5576 5578 5581 5583 5585 5588 5590 5593 5595 5597 5599 5602 5604 5606 5608 5610 5612 5614 5616 5618 5620 5622 5624 5625 5627 5629 5630 5632 5634 5635 5636 5638 5639 5641 5642 5644 5645 5647 5649 5650 5652 5654 5655 5657
5529 5530 5531 5531 5532 5533 5534 5535 5536 5538 5539 5541 5543 5545 5547 5549 5551 5554 5556 5558 5560 5562 5565 5567 5569 5571 5574 5576 5579 5581 5584 5586 5589 5591 5594 5596 5598 5600 5602 5604 5606 5609 5611 5613 5615 5617 5619 5621 5622 5624 5626 5628 5629 5631 5632 5634 5635 5637 5639 5640 5642 5643 5645 5647 5648 5650 5651 5653 5655
5525 5525 5526 5527 5528 5529 5529 5531 5532 5533 5534 5536 5538 5540 5542 5544 5547 5549 5551 5553 5555 5558 5560 5563 5565 5567 5569 5572 5574 5577 5579 5582 5585 5587 5590 5592 5594 5597 5599 5601 5603 5605 5608 5609 5612 5614 5616 5618 5619 5621 5623 5625 5627 5628 5630 5631 5633 5634 5636 5638 5639 5641 5643 5644 5646 5648 5649 5651 5653
5520 5521 5521 5522 5523 5524 5525 5526 5527 5529 5530 5531 5533 5535 5537 5539 5542 5544 5546 5549 5551 5554 5556 5558 5561 5563 5565 5568 5570 5573 5575 5578 5581 5584 5586 5589 5591 5594 5596 5598 5600 5602 5604 5606 5609 5610 5613 5615 5617 5619 5620 5622 5624 5626 5627 5629 5631 5632 5634 5635 5637 5639 5640 5642 5644 5645 5647 5649 5651
5516 5516 5517 5518 5519 5519 5520 5521 5523 5524 5525 5527 5529 5530 5532 5535 5537 5539 5542 5544 5546 5549 5551 5554 5556 5559 5561 5564 5566 5569 5571 5574 5577 5579 5582 5585 5588 5590 5592 5594 5597 5599 5601 5603 5605 5608 5609 5612 5614 5616 5618 5620 5622 5623 5625 5627 5629 5630 5632 5633 5635 5637 5638 5640 5642 5644 5645 5647 5649
5511 5512 5512 5513 5514 5515 5516 5517 5518 5519 5521 5522 5524 5525 5528 5530 5532 5534 5537 5539 5542 5544 5547 5549 5552 5554 5557 5559 5562 5564 5567 5570 5573 5575 5578 5581 5584 5586 5589 5591 5594 5596 5598 5600 5602 5604 5607 5609 5611 5613 5615 5617 5619 5621 5623 5625 5627 5628 5629 5631 5633 5634 5636 5638 5639 5641 5643 5645 5647
5507 5507 5508 5508 5509 5510 5511 5512 5513 5515 5516 5518 5519 5521 5523 5525 5527 5529 5532 5535 5537 5540 5542 5544 5548 5550 5553 5555 5558 5560 5563 5566 5569 5572 5574 5577 5580 5583 5585 5588 5590 5592 5594 5597 5599 5601 5604 5606 5608 5610 5612 5614 5616 5618 5620 5622 5624 5626 5627 5629 5631 5633 5634 5636 5638 5639 5641 5643 5645
5502 5502 5503 5504 5504 5505 5506 5507 5509 5510 5512 5513 5515 5516 5518 5520 5522 5525 5528 5530 5533 5535 5537 5540 5543 5546 5549 5551 5554 5556 5559 5562 5565 5568 5570 5573 5576 5579 5581 5584 5586 5589 5591 5594 5596 5598 5600 5603 5605 5607 5609 5612 5614 5616 5618 5620 5622 5624 5625 5627 5629 5630 5632 5634 5636 5637 5639 5641 5643
5497 5498 5498 5499 5499 5500 5502 5503 5504 5505 5507 5509 5510 5512 5514 5515 5518 5520 5523 5525 5528 5530 5533 5536 5539 5541 5544 5547 5550 5552 5555 5558 5561 5564 5566 5569 5572 5575 5578 5580 5583 5585 5588 5590 5593 5595 5597 5600 5602 5604 5607 5609 5611 5613 5615 5617 5619 5621 5623 5625 5627 5628 5630 5632 5634 5635 5637 5639 5641
5493 5493 5493 5494 5495 5496 5497 5498 5499 5501 5502 5504 5505 5507 5509 5511 5513 5515 5518 5521 5523 5526 5529 5531 5534 5537 5540 5543 5546 5549 5551 5554 5557 5559 5562 5565 5568 5571 5574 5576 5579 5582 5584 5587 5589 5592 5594 5597 5599 5601 5604 5606 5608 5610 5613 5615 5617 5619 5621 5623 5624 5626 5628 5630 5632 5634 5635 5637 5639
5488 5488 5489 5489 5490 5491 5492 5493 5494 5496 5498 5499 5500 5502 5504 5506 5508 5510 5513 5516 5519 5521 5524 5527 5530 5533 5536 5539 5542 5544 5547 5550 5553 5555 5558 5561 5564 5567 5570 5573 5576 5579 5581 5584 5586 5589 5591 5594 5596 5598 5601 5603 5605 5608 5610 5612 5614 5616 5618 5620 5622 5624 5626 5628 5629 5631 5633 5635 5637
5483 5483 5484 5484 5485 5486 5487 5488 5490 5491 5493 5494 5496 5498 5499 5501 5504 5506 5509 5511 5514 5517 5520 5523 5525 5529 5531 5534 5538 5540 5543 5546 5549 5551 5554 5557 5560 5563 5566 5569 5572 5575 5578 5580 5583 5585 5588 5590 5593 5595 5598 5600 5602 5605 5607 5609 5611 5614 5616 5618 5619 5621 5624 5625 5627 5629 5631 5633 5635
5478 5479 5479 5479 5480 5481 5482 5484 5485 5486 5488 5489 5491 5493 5495 5497 5499 5501 5504 5506 5509 5512 5515 5518 5521 5524 5527 5530 5533 5536 5539 5542 5545 5548 5550 5554 5556 5559 5563 5565 5569 5571 5574 5577 5579 5582 5585 5587 5590 5592 5595 5597 5599 5602 5604 5606 5609 5611 5613 5615 5617 5619 5621 5623 5625 5627 5629 5631 5633
5473 5474 5474 5475 5475 5476 5477 5479 5480 5481 5483 5484 5486 5488 5490 5492 5494 5497 5499 5502 5505 5508 5511 5514 5517 5520 5523 5526 5529 5532 5535 5538 5541 5544 5547 5549 5553 5556 5559 5562 5565 5568 5571 5574 5576 5579 5581 5584 5587 5589 5592 5594 5596 5599 5601 5604 5606 5608 5610 5613 5615 5617 5619 5621 5623 5625 5627 5629 5631
5468 5469 5469 5470 5470 5471 5472 5474 5475 5476 5478 5479 5481 5483 5485 5487 5489 5492 5494 5497 5500 5503 5506 5509 5512 5515 5519 5522 5525 5528 5531 5534 5537 5540 5543 5546 5549 5552 5555 5558 5561 5564 5567 5570 5573 5575 5578 5581 5583 5586 5589 5591 5594 5596 5598 5601 5603 5606 5608 5610 5612 5614 5616 5619 5620 5623 5625 5627 5629
5463 5464 5464 5465 5465 5466 5467 5469 5470 5471 5473 5475 5477 5479 5480 5483 5485 5487 5490 5493 5496 5499 5502 5505 5508 5511 5514 5518 5521 5524 5527 5530 5533 5536 5539 5542 5545 5548 5551 5554 5558 5561 5564 5566 5569 5572 5575 5577 5580 5583 5585 5588 5590 5593 5595 5598 5600 5603 5605 5607 5610 5612 5614 5616 5618 5620 5623 5625 5627
5458 5459 5459 5460 5460 5461 5462 5464 5465 5466 5468 5470 5472 5474 5476 5478 5480 5483 5485 5488 5491 5494 5497 5500 5504 5507 5510 5513 5517 5520 5523 5526 5529 5533 5535 5538 5541 5544 5547 5551 5554 5557 5560 5563 5566 5569 5571 5574 5577 5579 5582 5585 5587 5590 5592 5595 5597 5600 5602 5605 5607 5609 5612 5614 5616 5618 5620 5623 5625
5454 5454 5454 5455 5455 5456 5457 5459 5460 5461 5463 5465 5467 5469 5471 5473 5475 5478 5481 5484 5487 5489 5493 5496 5499 5503 5506 5509 5513 5516 5519 5522 5525 5529 5531 5534 5538 5540 5544 5547 5550 5553 5556 5559 5562 5565 5568 5571 5574 5576 5579 5582 5584 5587 5589 5592 5594 5597 5599 5602 5604 5607 5609 5611 5614 5616 5618 5620 5623
5449 5449 5450 5450 5451 5452 5453 5454 5455 5456 5458 5460 5462 5464 5466 5468 5471 5473 5476 5479 5482 5485 5488 5491 5495 5499 5502 5505 5509 5512 5515 5519 5522 5525 5528 5531 5534 5537 5540 5543 5546 5549 5553 5556 5559 5562 5564 5567 5570 5573 5576 5579 5581 5584 5586 5589 5592 5594 5597 5599 5602 5604 5606 5609 5611 5614 5616 5618 5620
5444 5445 5445 5445 5446 5447 5448 5449 5450 5452 5453 5455 5457 5459 5461 5464 5466 5469 5471 5474 5477 5480 5484 5487 5491 5494 5498 5501 5504 5508 5511 5515 5518 5521 5524 5527 5530 5533 5536 5539 5543 5546 5549 5552 5555 5558 5561 5564 5567 5570 5573 5575 5578 5581 5584 5586 5589 5591 5594 5596 5599 5601 5604 5606 5609 5611 5613 5616 5618
5440 5441 5441 5441 5442 5442 5443 5444 5445 5447 5448 5450 5452 5454 5456 5459 5461 5464 5467 5469 5473 5476 5479 5483 5486 5490 5494 5497 5500 5504 5507 5511 5514 5517 5520 5523 5526 5529 5533 5536 5539 5542 5545 5549 5552 5555 5558 5561 5564 5566 5569 5572 5575 5578 5580 5583 5586 5588 5591 5593 5596 5599 5601 5604 5606 5609 5611 5613 5615
5437 5437 5437 5437 5438 5438 5439 5439 5441 5442 5444 5445 5447 5449 5451 5454 5456 5459 5462 5465 5468 5471 5475 5478 5482 5486 5489 5493 5497 5500 5504 5507 5510 5514 5517 5519 5523 5526 5529 5532 5535 5538 5542 5545 5548 5551 5554 5557 5560 5563 5566 5569 5572 5575 5578 5580 5583 5585 5588 5590 5593 5596 5598 5601 5604 5606 5609 5611 5613
5433 5433 5433 5433 5434 5434 5434 5435 5436 5437 5439 5440 5442 5444 5446 5449 5452 5454 5457 5460 5464 5467 5470 5474 5478 5481 5485 5489 5493 5496 5499 5503 5506 5510 5513 5516 5519 5522 5526 5529 5532 5535 5538 5541 5544 5548 5551 5554 5557 5560 5563 5566 5569 5572 5574 5577 5580 5582 5585 5588 5590 5593 5595 5598 5601 5604 5606 5609 5611
5429 5429 5429 5430 5430 5430 5430 5431 5432 5433 5434 5436 5438 5439 5442 5444 5447 5449 5453 5456 5459 5462 5466 5469 5473 5477 5481 5485 5489 5492 5496 5499 5503 5506 5509 5512 5515 5519 5522 5525 5528 5531 5534 5538 5541 5544 5548 5551 5554 5557 5560 5563 5565 5569 5571 5574 5577 5579 5582 5584 5587 5590 5593 5596 5599 5601 5604 5606 5609
5426 5426 5426 5426 5426 5426 5427 5427 5428 5429 5430 5431 5433 5435 5437 5439 5442 5445 5448 5451 5454 5458 5461 5465 5469 5473 5477 5481 5485 5489 5492 5495 5499 5502 5505 5509 5512 5515 5518 5522 5525 5528 5531 5534 5538 5541 5544 5547 5550 5554 5557 5559 5563 5565 5568 5571 5574 5576 5579 5582 5584 5587 5590 5593 5596 5599 5601 5604 5606
5423 5423 5423 5423 5423 5423 5423 5423 5424 5425 5426 5427 5429 5430 5432 5434 5437 5440 5443 5446 5450 5453 5457 5460 5464 5469 5473 5476 5481 5485 5488 5492 5495 5498 5502 5505 5508 5511 5515 5518 5521 5524 5528 5531 5534 5538 5541 5544 5547 5550 5553 5556 5559 5562 5565 5568 5571 5574 5576 5579 5582 5584 5587 5590 5593 5596 5599 5601 5604
5420 5420 5420 5420 5420 5420 5420 5420 5420 5421 5422 5423 5424 5426 5428 5430 5433 5435 5439 5442 5445 5449 5452 5456 5460 5464 5468 5472 5477 5481 5484 5488 5491 5494 5498 5501 5504 5508 5511 5514 5518 5521 5524 5528 5531 5534 5537 5541 5544 5547 5550 5553 5556 5559 5562 5565 5568 5570 5573 5576 5579 5582 5584 5588 5591 5594 5596 5599 5602
5418 5418 5418 5417 5417 5417 5417 5417 5417 5417 5418 5419 5420 5422 5424 5425 5428 5431 5434 5437 5440 5444 5448 5452 5455 5459 5464 5468 5473 5477 5481 5484 5488 5491 5494 5497 5501 5504 5507 5511 5514 5517 5521 5524 5527 5531 5534 5537 5540 5544 5547 5550 5553 5556 5559 5562 5565 5568 5570 5573 5576 5579 5582 5585 5588 5591 5594 5596 5599
5415 5415 5415 5414 5414 5414 5414 5414 5414 5414 5414 5415 5416 5418 5419 5421 5424 5426 5429 5433 5436 5439 5443 5447 5451 5455 5459 5464 5469 5473 5477 5481 5484 5487 5490 5494 5497 5500 5504 5507 5510 5514 5517 5521 5524 5527 5531 5534 5537 5540 5544 5547 5550 5553 5556 5559 5562 5565 5568 5570 5573 5576 5579 5582 5585 5588 5591 5594 5597
5412 5412 5412 5412 5412 5411 5411 5410 5410 5410 5411 5412 5413 5414 5415 5417 5419 5422 5425 5428 5431 5435 5439 5442 5446 5450 5455 5459 5464 5469 5473 5477 5480 5484 5487 5490 5494 5497 5500 5504 5507 5510 5514 5517 5521 5524 5528 5531 5534 5537 5540 5544 5547 5550 5553 5556 5559 5562 5565 5568 5570 5574 5577 5580 5583 5586 5589 5591 5594
5410 5410 5409 5409 5409 5408 5408 5408 5408 5408 5408 5408 5409 5410 5411 5413 5415 5418 5420 5424 5427 5430 5434 5438 5442 5446 5450 5455 5460 5464 5469 5473 5477 5480 5483 5487 5490 5494 5497 5500 5504 5507 5510 5514 5517 5521 5524 5528 5531 5534 5537 5541 5544 5547 5550 5553 5556 5559 5562 5565 5568 5571 5574 5577 5580 5583 5586 5589 5592
5407 5407 5407 5407 5406 5406 5405 5405 5405 5404 5405 5405 5406 5407 5408 5409 5411 5414 5416 5419 5422 5426 5429 5434 5438 5442 5446 5451 5456 5460 5465 5469 5473 5477 5480 5483 5486 5490 5494 5497 5500 5504 5507 5510 5514 5518 5521 5524 5528 5531 5534 5538 5541 5544 5547 5550 5553 5556 5559 5562 5565 5568 5571 5574 5577 5580 5584 5586 5589
5404 5404 5404 5404 5404 5403 5403 5402 5402 5402 5402 5402 5403 5404 5404 5406 5408 5410 5412 5415 5418 5422 5425 5429 5433 5437 5442 5446 5451 5456 5460 5465 5469 5473 5477 5480 5483 5487 5490 5494 5497 5500 5504 5507 5511 5514 5518 5521 5525 5528 5531 5534 5538 5541 5544 5547 5550 5554 5556 5559 5562 5565 5569 5572 5575 5578 5581 5584 5587
5402 5402 5402 5401 5401 5400 5400 5399 5399 5399 5399 5399 5400 5400 5401 5403 5404 5406 5408 5411 5414 5418 5421 5425 5429 5433 5438 5442 5447 5452 5456 5461 5465 5469 5473 5476 5479 5483 5487 5490 5494 5497 5500 5504 5508 5511 5515 5518 5522 5525 5528 5532 5535 5538 5541 5545 5548 5551 5554 5557 5559 5563 5566 5569 5572 5575 5578 5581 5584
5399 5399 5399 5399 5398 5398 5398 5397 5397 5397 5397 5397 5397 5398 5398 5399 5401 5403 5405 5407 5410 5414 5417 5421 5425 5429 5433 5438 5443 5448 5452 5457 5461 5465 5469 5473 5476 5480 5483 5487 5490 5494 5497 5501 5504 5508 5512 5515 5519 5522 5525 5529 5532 5535 5539 5542 5545 5548 5551 5554 5557 5560 5563 5566 5569 5573 5576 5579 5582
5396 5396 5396 5396 5396 5395 5395 5394 5394 5394 5394 5394 5394 5395 5395 5396 5398 5399 5401 5404 5407 5410 5413 5417 5421 5425 5429 5434 5439 5444 5448 5453 5457 5461 5466 5469 5473 5476 5480 5484 5487 5491 5494 5498 5501 5505 5508 5512 5515 5519 5522 5526 5529 5533 5536 5539 5543 5545 5549 5551 5554 5557 5560 5564 5567 5570 5573 5576 5579
5394 5394 5394 5393 5393 5393 5393 5392 5392 5392 5392 5392 5392 5392 5393 5394 5395 5396 5398 5400 5403 5406 5409 5413 5417 5421 5425 5430 5434 5439 5444 5449 5453 5458 5462 5466 5470 5473 5477 5480 5484 5488 5491 5494 5498 5502 5505 5509 5512 5516 5519 5523 5526 5530 5533 5537 5540 5543 5546 5549 5552 5555 5558 5561 5564 5567 5570 5574 5577